Ketchikan, AK

8:36 AM AKDT on October 16, 2018 (GMT -0800)
Ketchikan International

Weather History for PAKT - September, 2018

Change the Weather History Date:

Wednesday, September 19, 2018

  Actual Average Record
Temperature  
Mean Temperature 52 °F -  
Max Temperature 60 °F 60 °F 72 °F (1976)
Min Temperature 44 °F 45 °F 37 °F (2004)
Degree Days  
Heating Degree Days 14    
Growing Degree Days 2 (Base 50)    
Moisture  
Dew Point 44 °F    
Average Humidity 78    
Maximum Humidity 93    
Minimum Humidity 48    
Precipitation  
Precipitation 0.00 in - - ()
Sea Level Pressure  
Sea Level Pressure 30.07 in    
Wind  
Wind Speed 4 mph (West)    
Max Wind Speed 10 mph    
Max Gust Speed -    
Visibility 10 miles    
Events      
Averages and records for this station are not official NWS values.
T = Trace of Precipitation, MM = Missing Value Source: NWS Daily Summary

Daily Weather History Graph

Daily Weather History Graph

Search for Another Location

Airport or City:

Astronomy

Sep. 19, 2018 Rise Set
Actual Time 6:26 AM AKDT 6:52 PM AKDT
Civil Twilight 5:50 AM AKDT 7:29 PM AKDT
Nautical Twilight 5:06 AM AKDT 8:13 PM AKDT
Astronomical Twilight 4:19 AM AKDT 8:59 PM AKDT
Moon 5:07 PM AKDT (9/19) 12:18 AM AKDT (9/19)
Length of Visible Light 13h 39m
Length of Day
12h 26m
Waxing Gibbous, 76% of the Moon is Illuminated
Sep 19
Waxing Gibbous
Sep 24
Full
Oct 2
Last Quarter
Oct 8
New
Oct 16
First Quarter

Hourly Weather History & Observations

Time (AKDT) Temp. Windchill Dew Point Humidity Pressure Visibility Wind Dir Wind Speed Gust Speed Precip Events Conditions
12:53 AM 45.0 °F 43.5 °F 42.1 °F 90% 30.09 in 10.0 mi SW 3.5 mph - N/A   Clear
1:53 AM 46.0 °F - 42.1 °F 86% 30.09 in 10.0 mi Calm Calm - N/A   Clear
2:53 AM 46.0 °F 44.8 °F 42.1 °F 86% 30.09 in 10.0 mi West 3.5 mph - N/A   Mostly Cloudy
3:53 AM 46.0 °F - 42.1 °F 86% 30.09 in 10.0 mi Calm Calm - N/A   Overcast
4:53 AM 46.9 °F - 43.0 °F 86% 30.09 in 10.0 mi West 3.5 mph - N/A   Mostly Cloudy
5:53 AM 48.0 °F - 44.1 °F 86% 30.09 in 10.0 mi WNW 4.6 mph - N/A   Mostly Cloudy
6:12 AM 48.2 °F - 44.6 °F 87% 30.08 in 10.0 mi WNW 4.6 mph - N/A   Mostly Cloudy
6:53 AM 48.0 °F - 44.1 °F 86% 30.09 in 10.0 mi WNW 3.5 mph - N/A   Clear
7:53 AM 48.2 °F - 44.6 °F 87% 30.09 in 10.0 mi NW 4.6 mph - N/A   Clear
8:53 AM 51.1 °F - 44.1 °F 77% 30.09 in 10.0 mi NW 8.1 mph - N/A   Clear
9:53 AM 53.6 °F - 44.6 °F 72% 30.09 in 10.0 mi NNW 10.4 mph - N/A   Partly Cloudy
10:53 AM 55.4 °F - 46.4 °F 72% 30.08 in 10.0 mi NW 9.2 mph - N/A   Partly Cloudy
11:53 AM 57.2 °F - 46.4 °F 67% 30.07 in 10.0 mi NW 9.2 mph - N/A   Clear
12:53 PM 57.2 °F - 44.6 °F 63% 30.06 in 10.0 mi NW 10.4 mph - N/A   Clear
1:53 PM 57.2 °F - 44.6 °F 63% 30.05 in 10.0 mi WNW 8.1 mph - N/A   Clear
2:53 PM 59.0 °F - 39.2 °F 48% 30.04 in 10.0 mi WNW 9.2 mph - N/A   Clear
3:53 PM 59.0 °F - 41.0 °F 51% 30.03 in 10.0 mi NW 8.1 mph - N/A   Clear
4:53 PM 59.0 °F - 42.8 °F 55% 30.03 in 10.0 mi NW 6.9 mph - N/A   Clear
5:53 PM 55.4 °F - 42.8 °F 63% 30.03 in 10.0 mi Calm Calm - N/A   Clear
6:53 PM 48.9 °F - 43.0 °F 80% 30.04 in 10.0 mi Calm Calm - N/A   Clear
7:53 PM 48.0 °F - 42.1 °F 80% 30.05 in 10.0 mi South 5.8 mph - N/A   Clear
8:53 PM 48.0 °F - 43.0 °F 83% 30.06 in 10.0 mi SSE 4.6 mph - N/A   Clear
9:53 PM 48.0 °F - 44.1 °F 86% 30.06 in 10.0 mi SSE 4.6 mph - N/A   Clear
10:42 PM 44.1 °F 42.5 °F 41.0 °F 89% 30.05 in 10.0 mi South 3.5 mph - N/A   Partly Cloudy
10:53 PM 48.0 °F - 45.0 °F 89% 30.06 in 10.0 mi South 5.8 mph - N/A   Scattered Clouds
11:00 PM 48.9 °F - 46.9 °F 93% 30.05 in 10.0 mi South 5.8 mph - N/A   Mostly Cloudy
11:15 PM 48.0 °F - 45.0 °F 89% 30.05 in 10.0 mi SE 3.5 mph - N/A   Overcast
11:27 PM 48.0 °F - 43.0 °F 83% 30.06 in 10.0 mi SE 4.6 mph - N/A   Overcast
11:53 PM 48.9 °F - 45.0 °F 86% 30.06 in 10.0 mi SE 4.6 mph - N/A   Overcast